DELTA 1 DEB, 1529

Orbit data source: Space-Track

DELTA 1 DEB, 1529 is space debris in SSO originally from a launch on Fri, 02 Jul 1965 UTC launched from the Air Force Eastern Test Range (AFETR). Debris objects in space refer to the collection of defunct objects orbiting the Earth. Examples of debris include non-operational satellites, rocket bodies, and fragments generated from explosions, collisions, or faulty payload assembly.

Loading next visibility...
Identifier
1529, 1965-051D
Orbit
SSO
Country
Flag of USUS
Related business
Manufacturer
Unknown
Mission
Spacecraft
Bus & Motor
Unknown
Mass
1 kg wet, 1 kg dry
Launch date (UTC)
1965-07-02 (61 years ago)
Launch vehicle
Unknown
Launch site
Air Force Eastern Test Range (AFETR)
Object type
Payload
Rocket body
Debris
Shape & HBR
Unknown
Radar Cross Section
Small (<0.1 m²)

Expand to show TLE details & history
Last TLE update: 2 days ago

TLE from 2 days ago
0 DELTA 1 DEB
1 01529U 65051D   26069.41312553  .00000212  00000-0  11127-3 0  9991
2 01529  98.9988 306.7727 0036584 147.3397 213.0054 14.24224968141386
Epoch: 2026-03-10T09:54Z
TLE epoch observation values (Epoch: 2026-03-10T09:54:54.045Z)
Latitude
Longitude
-10.04456°
Altitude
836.1 km
Speed
7.423 km/s
True Right ascension
20h 27m 05s
True Declination
0° 00' 00"
Sunlit
Object was in daylight at epoch
Visualization orbit readout
Latitude
Unknown
Longitude
Unknown
Altitude
Unknown
Speed
Unknown
Apparent Right ascension
Unknown
Apparent Declination
Unknown
Sunlit
N/A
Visualization observer readout
Local Sidereal Time
08:01:51
Azimuth
Unknown
Elevation
Unknown
Doppler factor
Unknown
Orbital elements
Apogee altitude
834.557 km
Perigee altitude
781.976 km
Semi-major axis
7,186.404 km
Eccentricity
0.00366
Inclination
98.9988°
RAAN
306.7727°
Arg. of periapsis
147.3397°
True anomaly
212.77792°
Mean anomaly
213.0054°
Eccentric anomaly
212.89157°
Mean motion
3.56267 °/min
Orbital period
101.05 mins
BSTAR
0.00011127
Loading maneuver chart data...
Computing Atmospheric mass density...
Loading historical data...
Loading historical data...
Loading historical data...
Loading historical data...
Loading historical data...
Loading historical data...
Loading historical data...
Other satellites on launch #51 in the year 1965 (1965-07-02 UTC)

Documentation

Showing up to 5 results
|